Terminal Aerodrome Forecast
Issued by NWS Portland, OR

Home | Current Version | Previous Version | Text Only | Print | Product List | Glossary On
Versions: 1 2 3 4 5 6 7 8 9 10 11 12 13
000
FTUS46 KPQR 201120
TAFHIO
TAF
KHIO 201120Z 2012/2112 VRB03KT P6SM SCT100 BKN200
     FM202000 20005KT P6SM FEW060 BKN100
     FM210300 20005KT P6SM BKN040 OVC090
     FM210700 19013KT P6SM -RA SCT030 OVC040=

USA.gov is the U.S. government's official web portal to all federal, state and local government web resources and services.